Breckenridge, TX

1:43 AM CDT on May 27, 2017 (GMT -0500)
Stephens County

Weather History for KBKD - July, 2013

Change the Weather History Date:

Tuesday, July 16, 2013

  Actual Average (KMWL) Record (KMWL)
Temperature  
Mean Temperature 76 °F -  
Max Temperature 82 °F 95 °F 105 °F (2011)
Min Temperature 69 °F 71 °F 66 °F (2012)
Cooling Degree Days 10    
Growing Degree Days 26 (Base 50)    
Moisture  
Dew Point 71 °F    
Average Humidity 90    
Maximum Humidity 99    
Minimum Humidity 66    
Precipitation  
Precipitation 0.02 in - - ()
Sea Level Pressure  
Sea Level Pressure 30.13 in    
Wind  
Wind Speed 6 mph (ESE)    
Max Wind Speed 15 mph    
Max Gust Speed 29 mph    
Visibility 8 miles    
Events Rain , Thunderstorm    
Averages and records for this station are not official NWS values.
T = Trace of Precipitation, MM = Missing Value Source: NWS Daily Summary

Daily Weather History Graph

Daily Weather History Graph

Search for Another Location

Airport or City:

Trip Planner

Search our weather history database for the weather conditions in past years. The results will help you decide how hot, cold, wet, or windy it might be!

Date:

Astronomy

Jul. 16, 2013 Rise Set
Actual Time 6:39 AM CDT 8:43 PM CDT
Civil Twilight 6:11 AM CDT 9:11 PM CDT
Nautical Twilight 5:37 AM CDT 9:45 PM CDT
Astronomical Twilight 5:01 AM CDT 10:21 PM CDT
Moon 2:34 PM CDT (7/16) 1:00 AM CDT (7/16)
Length of Visible Light 15h 00m
Length of Day
14h 04m
First Quarter, 56% of the Moon is Illuminated
Jul 16
First Quarter
Jul 22
Full
Jul 29
Last Quarter
Aug 6
New
Aug 14
First Quarter

Hourly Weather History & Observations

Time (CDT) Temp. Heat Index Dew Point Humidity Pressure Visibility Wind Dir Wind Speed Gust Speed Precip Events Conditions
12:15 AM 71.6 °F - 70.7 °F 97% 30.08 in 5.0 mi ESE 6.9 mph - N/A Rain Light Rain
12:35 AM 71.6 °F - 70.9 °F 98% 30.08 in 5.0 mi ESE 5.8 mph - N/A Rain Rain
12:55 AM 71.8 °F - 71.1 °F 98% 30.08 in 4.0 mi East 5.8 mph - N/A Rain Rain
1:15 AM 71.6 °F - 70.9 °F 98% 30.07 in 7.0 mi ESE 11.5 mph - N/A Rain Rain
1:35 AM 71.6 °F - 70.7 °F 97% 30.07 in 5.0 mi ESE 10.4 mph - N/A Rain Rain
1:55 AM 70.9 °F - 70.0 °F 97% 30.07 in 5.0 mi SE 10.4 mph 16.1 mph N/A Rain Rain
2:15 AM 70.7 °F - 69.4 °F 96% 30.08 in 7.0 mi SE 5.8 mph - N/A Rain Rain
2:35 AM 70.3 °F - 69.3 °F 96% 30.08 in 5.0 mi South 4.6 mph - N/A Rain Rain
2:55 AM 70.0 °F - 68.7 °F 96% 30.06 in 2.5 mi ESE 4.6 mph - N/A Rain Heavy Rain
3:15 AM 69.8 °F - 68.9 °F 97% 30.07 in 5.0 mi Calm Calm - N/A Rain Rain
3:35 AM 69.8 °F - 68.9 °F 97% 30.07 in 5.0 mi East 5.8 mph - N/A Rain Rain
3:55 AM 69.8 °F - 69.1 °F 98% 30.06 in 3.0 mi East 6.9 mph - N/A Rain Heavy Rain
4:15 AM 70.7 °F - 70.0 °F 98% 30.06 in 3.0 mi East 10.4 mph - N/A Rain Heavy Rain
4:35 AM 70.2 °F - 69.8 °F 99% 30.08 in 4.0 mi SW 6.9 mph - N/A Rain Heavy Rain
4:55 AM 70.0 °F - 69.4 °F 98% 30.07 in 4.0 mi Calm Calm - N/A Rain Rain
5:15 AM 70.2 °F - 69.6 °F 98% 30.08 in 3.0 mi Calm Calm - N/A Rain Rain
5:35 AM 70.7 °F - 70.2 °F 98% 30.08 in 7.0 mi Calm Calm - N/A Rain Light Rain
5:55 AM 70.3 °F - 69.8 °F 98% 30.08 in 10.0 mi Calm Calm - N/A Rain Rain
6:15 AM 71.6 °F - 70.9 °F 98% 30.09 in 10.0 mi East 3.5 mph - N/A Rain Light Rain
6:35 AM 72.0 °F - 71.6 °F 99% 30.10 in 7.0 mi Calm Calm - N/A Rain Light Rain
6:55 AM 72.5 °F - 71.8 °F 98% 30.11 in 7.0 mi SSE 6.9 mph - N/A   Drizzle
7:15 AM 72.5 °F - 71.6 °F 97% 30.11 in 7.0 mi ESE 4.6 mph - N/A   Drizzle
7:35 AM 72.7 °F - 72.0 °F 98% 30.11 in 7.0 mi ESE 6.9 mph - 0.01 in   Light Drizzle
7:55 AM 72.7 °F - 72.0 °F 98% 30.11 in 7.0 mi ESE 8.1 mph - 0.01 in   Drizzle
8:15 AM 72.7 °F - 72.0 °F 98% 30.12 in 7.0 mi ESE 9.2 mph - N/A   Overcast
8:35 AM 73.0 °F - 72.0 °F 96% 30.13 in 7.0 mi SE 6.9 mph - N/A   Overcast
8:55 AM 73.4 °F - 72.1 °F 96% 30.13 in 7.0 mi ESE 4.6 mph - N/A   Overcast
9:15 AM 73.6 °F - 72.1 °F 95% 30.15 in 5.0 mi SE 5.8 mph - N/A   Overcast
9:35 AM 74.3 °F - 72.9 °F 95% 30.15 in 5.0 mi SE 6.9 mph - N/A   Overcast
9:55 AM 74.8 °F - 73.0 °F 94% 30.15 in 3.0 mi SE 9.2 mph - N/A Rain Light Rain
10:15 AM 75.2 °F - 73.2 °F 94% 30.15 in 10.0 mi ESE 10.4 mph - N/A   Overcast
10:55 AM 77.0 °F - 72.1 °F 85% 30.15 in 10.0 mi SE 10.4 mph - N/A   Overcast
11:15 AM 77.2 °F - 72.3 °F 85% 30.15 in 10.0 mi ESE 12.7 mph 16.1 mph N/A   Overcast
11:35 AM 77.7 °F - 72.0 °F 82% 30.16 in 10.0 mi SE 6.9 mph - N/A   Overcast
11:55 AM 78.1 °F - 71.6 °F 80% 30.16 in 10.0 mi ESE 9.2 mph - N/A   Mostly Cloudy
12:15 PM 79.2 °F - 70.3 °F 74% 30.16 in 10.0 mi ESE 8.1 mph - N/A   Mostly Cloudy
12:35 PM 79.3 °F - 70.7 °F 75% 30.16 in 10.0 mi ESE 11.5 mph - N/A   Mostly Cloudy
12:55 PM 79.2 °F - 70.7 °F 75% 30.15 in 10.0 mi East 9.2 mph - N/A   Mostly Cloudy
1:15 PM 81.9 °F 86.2 °F 71.1 °F 70% 30.14 in 10.0 mi ESE 13.8 mph 19.6 mph N/A   Scattered Clouds
1:35 PM 80.8 °F 84.4 °F 70.5 °F 71% 30.13 in 10.0 mi ESE 12.7 mph - N/A   Scattered Clouds
1:55 PM 81.9 °F 85.6 °F 69.8 °F 67% 30.13 in 10.0 mi East 13.8 mph - N/A   Scattered Clouds
2:15 PM 82.2 °F 86.0 °F 69.8 °F 66% 30.12 in 10.0 mi East 10.4 mph 20.7 mph N/A   Scattered Clouds
2:35 PM 80.2 °F 83.3 °F 69.8 °F 70% 30.12 in 10.0 mi East 15.0 mph 21.9 mph N/A   Mostly Cloudy
3:55 PM 79.3 °F - 70.5 °F 74% 30.13 in 10.0 mi WNW 4.6 mph - N/A Rain , Thunderstorm Light Thunderstorms and Rain
4:15 PM 72.1 °F - 70.2 °F 93% 30.15 in 1.5 mi SE 8.1 mph 28.8 mph N/A Rain , Thunderstorm Thunderstorms and Rain
4:35 PM 72.5 °F - 69.3 °F 90% 30.14 in 10.0 mi ESE 3.5 mph - N/A Rain , Thunderstorm Light Thunderstorms and Rain
4:55 PM 73.0 °F - 70.9 °F 93% 30.13 in 10.0 mi East 4.6 mph - N/A Thunderstorm Scattered Clouds
5:15 PM 74.5 °F - 72.3 °F 93% 30.13 in 10.0 mi ENE 3.5 mph - N/A   Clear
5:35 PM 75.2 °F - 72.5 °F 91% 30.13 in 10.0 mi Calm Calm - N/A   Clear
5:55 PM 76.1 °F - 73.0 °F 90% 30.13 in 10.0 mi ENE 3.5 mph - N/A   Clear
6:15 PM 76.6 °F - 73.6 °F 90% 30.13 in 10.0 mi East 3.5 mph - N/A   Clear
6:35 PM 77.2 °F - 74.1 °F 90% 30.12 in 10.0 mi East 4.6 mph - N/A   Clear
6:55 PM 77.4 °F - 74.3 °F 90% 30.13 in 10.0 mi ENE 4.6 mph - N/A   Clear
7:15 PM 77.9 °F - 74.5 °F 89% 30.13 in 10.0 mi East 3.5 mph - N/A   Clear
7:35 PM 77.9 °F - 74.3 °F 89% 30.14 in 10.0 mi East 3.5 mph - N/A   Clear
7:55 PM 77.7 °F - 73.4 °F 86% 30.15 in 10.0 mi ENE 3.5 mph - N/A   Clear
8:15 PM 77.4 °F - 73.8 °F 89% 30.15 in 10.0 mi NE 3.5 mph - 0.01 in   Clear
8:35 PM 77.0 °F - 73.6 °F 89% 30.15 in 10.0 mi NE 4.6 mph - 0.01 in   Clear
8:55 PM 76.5 °F - 73.8 °F 91% 30.16 in 10.0 mi NE 3.5 mph - 0.01 in   Scattered Clouds
9:15 PM 76.3 °F - 74.3 °F 94% 30.16 in 10.0 mi Calm Calm - N/A   Scattered Clouds
9:35 PM 76.1 °F - 73.9 °F 93% 30.17 in 10.0 mi Calm Calm - N/A   Mostly Cloudy
9:55 PM 76.3 °F - 73.4 °F 91% 30.18 in 10.0 mi Calm Calm - N/A   Overcast
10:15 PM 76.1 °F - 73.9 °F 93% 30.19 in 10.0 mi ENE 3.5 mph - N/A   Mostly Cloudy
10:35 PM 75.7 °F - 72.7 °F 90% 30.19 in 10.0 mi East 5.8 mph - N/A   Scattered Clouds
10:55 PM 76.1 °F - 70.9 °F 84% 30.19 in 10.0 mi East 6.9 mph - N/A   Clear
11:15 PM 75.4 °F - 70.2 °F 84% 30.20 in 10.0 mi East 6.9 mph - N/A   Scattered Clouds
11:35 PM 75.4 °F - 69.8 °F 83% 30.20 in 10.0 mi East 6.9 mph - N/A   Scattered Clouds
11:55 PM 74.8 °F - 69.8 °F 84% 30.20 in 10.0 mi ESE 4.6 mph - N/A   Scattered Clouds